www.pogodaiklimat.ru

Погода и климат >> Архив погоды >> Норвегия >> Тромсё


ПОГОДА в Тромсё

  • Прогноз погоды в Тромсё
  • Монитор погоды в Тромсё

АРХИВ ПОГОДЫ в Тромсё

Время (UTC), дата Ветер
(напр.,м/с)
 
Видим.   Явления Облачность Т
(С)
Тd
(С)
f
(%)
Тe
(С)
Тes
(С)
Комфортность P
(гПа)
Po
(гПа)
Тmin
(С)
Tmax
(С)
R
(мм)
R24
(мм)
S
(см)
04 8.09 Ю 1
{2}
н/о н/о +4.0 +3.6 97 +2 +2 1023.2 1008.9
05 8.09 ЮЗ 1
{2}
н/о н/о +4.6 +4.2 97 +3 +3 1023.0 1008.8
06 8.09 ЮЗ 2
{3}
<100 м туман ?/? +4.6 +4.2 97 +2 +2 1023.0 1008.8 +2.5 +5.9
07 8.09 ЮЗ 1
{2}
н/о н/о +4.7 +4.3 97 +3 +3 1022.6 1008.4
08 8.09 ЮЗ 2
{4}
н/о н/о +5.4 +5.0 97 +3 +3 1022.2 1008.0
09 8.09 Ю 2
{4}
500 м туман 9/9 <50 м
[St Ci fib]
+6.0 +5.6 97 +3 +4 1022.0 1007.8
10 8.09 ЮЗ 2
{4}
н/о н/о +7.6 +6.4 92 +5 +5 1021.6 1007.5
11 8.09 Ю 2
{4}
н/о н/о +7.7 +5.7 87 +6 +6 1021.4 1007.3
12 8.09 Ю 4
{5}
>70 км {туман} 10/1 1000 м
[Cu hum Ac As Cs]
+9.5 +4.9 73 +7 +8 1021.2 1007.2
13 8.09 Ю 4
{7}
н/о н/о +9.7 +4.9 72 +7 +7 1021.0 1007.0
14 8.09 Ю 4
{6}
н/о н/о +9.6 +4.6 71 +7 +7 1020.6 1006.6
15 8.09 ЮЗ 4
{6}
25 км слаб. дождь 10/3 600 м
[Cu hum As op]
+9.2 +5.6 78 +6 +6 1020.8 1006.8
16 8.09 Ю 5
{8}
н/о н/о +8.6 +5.7 82 +5 +5 1020.3 1006.3 0.2
17 8.09 Ю 5
{9}
н/о н/о +8.5 +6.3 86 +5 +5 1020.3 1006.3 0.2
18 8.09 ЮЗ 5
{13}
35 км слаб. дождь {морось} 10/4 600 м
[Frnb Ac As]
+8.3 +6.1 86 +5 +5 1020.1 1006.1 +4.3 +9.7 0.2
19 8.09 Ю 5
{10}
н/о н/о +8.5 +6.1 85 +5 +5 1020.1 1006.1 0.2
20 8.09 Ю 6
{11}
н/о н/о +9.3 +4.5 72 +6 +6 1019.8 1005.8
21 8.09 Ю 7
{12}
30 км {морось} 5/1 1500 м
[Frnb Ac As Cs]
+10.0 +4.0 66 +6 +6 1019.5 1005.6
22 8.09 ЮЗ 6
{14}
н/о н/о +9.5 +4.9 73 +6 +6 1019.7 1005.7
23 8.09 ЮЗ 7
{14}
н/о н/о +10.3 +4.2 66 +7 +7 1019.8 1005.9
00 9.09 Ю 6
{14}
25 км {морось} 10/0
[Ac As]
+10.5 +4.0 64 +7 +7 1020.3 1006.4
01 9.09 Ю 6
{12}
н/о н/о +10.6 +3.6 62 +8 +8 1020.2 1006.3
02 9.09 Ю 6
{11}
н/о н/о +11.1 +2.9 57 +8 +8 1020.1 1006.2
03 9.09 Ю 6
{10}
>70 км 9/0 2000 м
[Ac As]
+10.9 +3.2 59 +8 +8 1020.4 1006.5
04 9.09 Ю 5
{9}
н/о н/о +11.5 +2.0 52 +9 +9 1020.5 1006.6
05 9.09 Ю 6
{9}
н/о н/о +11.5 +2.0 52 +9 +9 1020.7 1006.8
06 9.09 Ю 5
{12}
>70 км 9/0
[Ac As]
+11.6 +1.8 51 +9 +9 1020.7 1006.8 +8.3 +11.7
07 9.09 Ю 5
{9}
н/о н/о +11.9 +1.8 50 +10 +10 1021.0 1007.1
08 9.09 ЮЗ 4
{8}
н/о н/о +13.3 +2.6 48 +12 +12 1021.0 1007.2
09 9.09 ЮЗ 4
{7}
>70 км 4/0 2000 м
[Ac lent]
+13.7 +1.4 43 +12 +14 1021.1 1007.3
10 9.09 ЮЗ 4
{7}
н/о н/о +15.3 0.0 35 +15 +15 1020.9 1007.2
11 9.09 Ю 3
{6}
н/о н/о +15.9 +1.3 37 +16 +16 1020.8 1007.1
12 9.09 Ю 2
{9}
>70 км 4/0
[Ac trans Ci sp]
+16.9 +1.4 35 +17 +20 1020.8 1007.2
13 9.09 Ю 2
{6}
н/о н/о +17.0 -0.2 31 +17 +17 1020.6 1007.0
14 9.09 ЮЗ 3
{5}
н/о н/о +17.4 -0.8 29 +17 +17 1020.4 1006.8
15 9.09 Ю 2
{4}
>70 км 6/0 2000 м
[Ac As Ci fib]
+14.8 +0.7 38 +15 +15 1020.5 1006.8
16 9.09 Ю 2
{4}
н/о н/о +14.2 +0.5 39 +14 +14 1020.4 1006.7
17 9.09 ЮЗ 1
{2}
н/о н/о +13.2 +1.6 45 +14 +14 1020.4 1006.6
18 9.09 СЗ 2
{6}
>70 км 8/0 2000 м
[Ac As]
+10.5 +3.8 63 +9 +9 1020.5 1006.6 +10.5 +17.6
19 9.09 СВ 2
{3}
н/о н/о +10.4 +3.2 61 +9 +9 1020.4 1006.5
20 9.09 С 1
{2}
н/о н/о +10.2 +3.5 63 +10 +10 1020.1 1006.2
21 9.09 Ю 1
{2}
>70 км 8/0 2000 м
[Ac As]
+8.9 +3.9 71 +8 +8 1020.4 1006.4
22 9.09 СВ 3
{4}
н/о н/о +9.7 +4.3 69 +8 +8 1020.2 1006.2
23 9.09 С 1
{6}
н/о н/о +8.7 +5.3 79 +8 +8 1020.1 1006.1
00 10.09 В 2
{6}
>70 км 9/0 2000 м
[Ac As]
+8.7 +5.1 78 +7 +7 1019.9 1005.9
01 10.09 В 1
{3}
н/о н/о +8.3 +4.9 79 +8 +8 1019.5 1005.5
02 10.09 ЮЗ 1
{2}
н/о н/о +7.6 +5.3 85 +7 +7 1019.2 1005.2
03 10.09 ЮЗ 1
{3}
>70 км 8/0 2000 м
[As trans]
+7.8 +4.9 82 +7 +7 1018.9 1004.9
04 10.09 ЮЗ 2
{2}
н/о н/о +6.8 +4.8 87 +5 +5 1018.8 1004.7
05 10.09 Ю 2
{3}
н/о н/о +6.9 +5.4 90 +5 +5 1018.4 1004.3
06 10.09 Ю 1
{3}
>70 км 3/0 2000 м
[Ac As Cc]
+8.3 +6.3 87 +8 +8 1018.0 1004.0 +6.8 +10.7
07 10.09 Ю 2
{3}
н/о н/о +10.5 +5.5 71 +9 +9 1017.6 1003.7
08 10.09 Ю 2
{4}
н/о н/о +11.5 +5.6 67 +11 +11 1017.3 1003.5
09 10.09 Ю 3
{4}
>70 км 8/0 2000 м
[Ac As]
+11.4 +4.9 64 +10 +11 1016.8 1003.0
10 10.09 Ю 2
{3}
н/о н/о +11.9 +5.3 64 +11 +11 1016.3 1002.5
11 10.09 Ю 2
{4}
н/о н/о +12.6 +5.5 62 +12 +12 1016.1 1002.3
12 10.09 ЮЗ 1
{4}
>70 км 9/0 2000 м
[Ac As]
+13.2 +5.9 61 +14 +15 1015.7 1002.0
13 10.09 ЮВ 2
{3}
н/о н/о +13.1 +5.5 60 +13 +13 1015.3 1001.6
14 10.09 ЮЗ 2
{4}
н/о н/о +13.2 +7.0 66 +13 +13 1014.6 1000.9
15 10.09 В 2
{4}
>70 км 9/9 1500 м
[Sc]
+12.2 +7.3 72 +11 +11 1014.1 1000.3
16 10.09 СВ 1
{2}
н/о н/о +11.5 +8.2 80 +11 +11 1013.9 1000.1 0.2
17 10.09 СЗ 2
{3}
н/о н/о +10.7 +8.5 86 +9 +9 1013.4 999.6 0.1
18 10.09 В 1
{4}
15 км слаб. дождь 10/9 1000 м
[Sc As op]
+10.6 +8.5 87 +10 +10 1013.0 999.2 +8.3 +13.9 0.4
19 10.09 В 2
{3}
н/о н/о +10.2 +8.5 89 +9 +9 1012.0 998.2 0.2
20 10.09 СВ 2
{3}
н/о н/о +10.0 +8.3 89 +8 +8 1011.6 997.8 0.2
21 10.09 СВ 2
{4}
8000 м дождь 10/9 600 м
[Sc As op]
+10.2 +8.6 90 +9 +9 1011.6 997.8 0.5
22 10.09 В 1
{3}
н/о н/о +10.3 +9.1 92 +10 +10 1011.0 997.2 0.2
23 10.09 СВ 2
{3}
н/о н/о +9.6 +8.5 93 +8 +8 1010.9 997.1
00 11.09 СВ 2
{4}
30 км слаб. дождь 10/9 600 м
[Sc Ac trans]
+10.2 +9.4 95 +9 +9 1010.3 996.5 1
01 11.09 СВ 2
{4}
н/о н/о +9.7 +8.8 94 +8 +8 1010.0 996.2 0.3
02 11.09 Ю 1
{4}
н/о н/о +10.0 +9.2 95 +9 +9 1009.3 995.5 0.1
03 11.09 В 2
{2}
5000 м туман местами {дождь} 9/9 100 м
[St Ac trans]
+9.6 +8.8 95 +8 +8 1008.6 994.8
04 11.09 В 1
{2}
н/о н/о +9.9 +9.3 96 +9 +9 1007.9 994.1
05 11.09 ЮВ 1
{2}
н/о н/о +10.0 +9.4 96 +9 +9 1007.2 993.4
06 11.09 В 1
{4}
70 км {туман} 9/6 600 м
[Sc Ac trans Cs]
+10.5 +9.7 95 +10 +10 1006.4 992.7 +9.2 +10.6 2
07 11.09 В 1
{2}
н/о н/о +11.9 +10.5 91 +12 +12 1005.6 992.0
08 11.09 СВ 1
{3}
н/о н/о +13.8 +10.8 82 +14 +14 1005.2 991.6
09 11.09 СВ 1
{2}
70 км 6/0
[Ac As Ci fib]
+16.2 +10.7 70 +17 +20 1004.1 990.7
10 11.09 СВ 3
{5}
н/о н/о +15.0 +10.6 75 +14 +14 1003.6 990.1
11 11.09 ЮЗ 2
{4}
н/о н/о +19.1 +9.9 55 +20 +20 1002.6 989.3
12 11.09 Ю 6
{11}
70 км 6/0 2000 м
[Ac As Cs]
+19.6 +8.0 47 +20 +21 1001.7 988.5
13 11.09 н/о
14 11.09 н/о
15 11.09 Ю 9
{17}
60 км 5/3 1000 м
[Cu hum Ac lent Ci sp]
+19.9 +7.3 44 +20 +20 999.1 985.9
16 11.09 н/о
17 11.09 Ю 5
{11}
н/о н/о +17.4 +8.8 57 +17 +17 998.2 984.9
18 11.09 Ю 7
{17}
60 км 4/3 1000 м
[Sc Ac lent Cs]
+16.4 +8.9 61 +15 +15 997.9 984.6 +10.5 +21.7
19 11.09 Ю 3
{12}
н/о н/о +16.6 +8.3 58 +16 +16 997.3 984.0
20 11.09 Ю 4
{12}
н/о н/о +16.2 +8.7 61 +16 +16 996.6 983.3
21 11.09 Ю 7
{14}
70 км 3/3 1000 м
[Sc Ac lent]
+15.8 +9.0 64 +14 +14 996.0 982.7
22 11.09 Ю 7
{13}
н/о н/о +15.4 +8.4 63 +14 +14 995.8 982.5
23 11.09 Ю 8
{14}
н/о н/о +15.7 +8.5 62 +14 +14 995.1 981.8
00 12.09 Ю 6
{14}
70 км 5/5 1000 м
[Sc Ac lent]
+16.0 +8.0 59 +15 +15 995.2 981.9
01 12.09 Ю 5
{11}
н/о н/о +15.1 +8.6 65 +14 +14 995.2 981.8
02 12.09 Ю 4
{9}
н/о н/о +15.3 +8.3 63 +14 +14 994.7 981.4
03 12.09 З 1
{7}
70 км 9/8 1000 м
[Sc Ac lent]
+13.7 +8.8 72 +14 +14 995.1 981.7
04 12.09 СЗ 2
{3}
н/о н/о +12.3 +9.5 83 +11 +11 995.4 981.9 0.1
05 12.09 З 3
{6}
н/о н/о +11.2 +10.3 94 +9 +9 996.2 982.6 2
06 12.09 ЮВ 1
{11}
15 км слаб. дождь 10/9 100 м
[Frnb As op]
+11.3 +10.5 95 +11 +11 995.9 982.4 +11.1 +17.3 4
07 12.09 ЮЗ 1
{3}
н/о н/о +11.6 +10.8 95 +11 +11 995.6 982.1 0.4
08 12.09 ЮЗ 1
{2}
н/о н/о +11.5 +10.6 94 +11 +11 995.8 982.3 0.5
09 12.09 Ю 2
{3}
15 км слаб. дождь 10/6 100 м
[Frnb As op]
+11.5 +10.7 95 +10 +10 995.7 982.2 2
10 12.09 Ю 3
{4}
н/о н/о +11.7 +10.9 95 +10 +10 995.7 982.2 0.9
11 12.09 Ю 4
{6}
н/о н/о +11.6 +10.4 92 +9 +9 995.8 982.3 1
12 12.09 Ю 3
{7}
30 км слаб. дождь 10/8 100 м
[Frnb As op]
+11.7 +10.1 90 +10 +10 995.7 982.2 0.6
13 12.09 ЮЗ 3
{5}
н/о н/о +11.6 +10.0 90 +10 +10 995.7 982.2 0.1
14 12.09 ЮЗ 3
{6}
н/о н/о +11.8 +9.7 87 +10 +10 995.8 982.3
15 12.09 Ю 4
{7}
30 км в посл. час дождь 10/8 100 м
[Cb calv As op]
+12.0 +9.4 84 +10 +10 995.7 982.2
16 12.09 СЗ 5
{12}
н/о н/о +9.1 +8.0 93 +6 +6 996.3 982.6 2
17 12.09 З 2
{8}
н/о н/о +9.1 +7.7 91 +7 +7 997.0 983.3 0.6
18 12.09 В 2
{12}
27 км слаб. ливневой дождь 10/10 100 м
[Cb calv]
+9.0 +7.9 93 +7 +7 997.4 983.7 +12.2 8
19 12.09 Ю 2
{4}
н/о н/о +9.0 +8.1 94 +7 +7 997.4 983.7 0.1
20 12.09 ЮЗ 3
{6}
н/о н/о +9.1 +7.4 89 +7 +7 997.3 983.6
21 12.09 ЮЗ 4
{7}
70 км {ливн. осадки} 10/9 1000 м
[Cu Sc]
+9.1 +6.2 82 +6 +6 997.4 983.7
22 12.09 Ю 3
{7}
н/о н/о +8.8 +5.7 81 +6 +6 997.4 983.7
23 12.09 Ю 4
{7}
н/о н/о +8.3 +5.8 84 +5 +5 997.4 983.7
00 13.09 Ю 4
{7}
70 км {ливн. осадки} 9/9 1000 м
[Cu Sc]
+8.6 +5.9 83 +5 +5 997.6 983.9 0.1
01 13.09 Ю 4
{7}
н/о н/о +8.6 +5.5 81 +6 +6 997.7 984.0
02 13.09 З 4
{8}
н/о н/о +7.9 +5.4 84 +5 +5 997.9 984.2
03 13.09 З 2
{6}
20 км {ливн. осадки} 9/9 600 м
[Cu Sc]
+7.3 +5.5 88 +5 +5 998.1 984.3
04 13.09 штиль 0
{4}
н/о н/о +6.9 +5.4 90 +6 +6 998.2 984.4 0.2
05 13.09 Ю 1
{2}
н/о н/о +7.0 +5.8 92 +6 +6 998.6 984.8 0.1
06 13.09 Ю 2
{8}
25 км осадки на расстоянии {ливн. осадки} 9/8 300 м
[Cu Sc Ac cuf Ci fib]
+7.6 +5.7 88 +5 +6 998.8 985.0 +6.5 +9.2 0.5
07 13.09 З 3
{5}
н/о н/о +7.7 +5.8 88 +5 +5 999.4 985.6 0.3
08 13.09 н/о
09 13.09 Ю 2
{5}
30 км осадки на расстоянии {ливн. осадки} 10/9 300 м
[Cu Sc Ac As]
+7.7 +5.2 84 +6 +6 1000.4 986.6
10 13.09 ЮЗ 3 н/о н/о +7.9 +6.0 88 +5 +5 1001.2 987.4 0.1
11 13.09 ЮЗ 3 н/о н/о +8.7 +4.7 76 +6 +6 1001.9 988.2
12 13.09 СЗ 4
{7}
25 км в посл. час ливневой дождь {метель} 9/9 300 м
[Cu Sc Ac As]
+7.8 +4.9 82 +4 +5 1002.6 988.8 0.9
13 13.09 СЗ 2 н/о н/о +8.1 +4.3 77 +6 +6 1003.3 989.5 0.3
14 13.09 ЮЗ 2 н/о н/о +8.4 +4.4 76 +7 +7 1003.8 990.0
15 13.09 ЮЗ 3 45 км осадки на расстоянии {ливн. осадки} 8/6 600 м
[Cu med, cong Ac cuf Ci fib]
+8.6 +4.0 73 +6 +6 1004.3 990.5
16 13.09 Ю 2 н/о н/о +7.9 +3.4 73 +6 +6 1004.9 991.1
17 13.09 ЮЗ 2 н/о н/о +6.6 +4.3 85 +4 +4 1005.6 991.7 0.3
18 13.09 ЮЗ 2
{7}
40 км в посл. час ливневой дождь 9/8 600 м
[Cu med, cong Ac cuf Ci fib]
+6.3 +2.9 79 +4 +4 1005.8 991.9 +8.9 2
19 13.09 СЗ 3 н/о н/о +5.9 +3.7 86 +3 +3 1006.2 992.3 0.2
20 13.09 Ю 2 н/о н/о +5.5 +4.0 90 +3 +3 1006.5 992.5 1
21 13.09 Ю 4 40 км в посл. час ливневой дождь 9/8 600 м
[Cu med, cong Ac cuf]
+5.5 +3.8 89 +1 +1 1006.7 992.7
22 13.09 ЮЗ 2 н/о н/о +5.5 +4.0 90 +3 +3 1007.0 993.0 0.3
23 13.09 ЮЗ 2 н/о н/о +5.6 +4.1 90 +3 +3 1007.0 993.0 0.3
00 14.09 Ю 2
{8}
45 км в посл. час ливневой дождь 9/8 600 м
[Cu med, cong Ac cuf]
+5.6 +3.9 89 +3 +3 1007.0 993.0 2
01 14.09 Ю 3
{6}
н/о н/о +5.7 +4.0 89 +2 +2 1007.2 993.2 0.3
02 14.09 Ю 3
{6}
н/о н/о +5.4 +3.9 90 +2 +2 1007.1 993.1 0.2
03 14.09 Ю 3 45 км в посл. час ливневой дождь 9/6 600 м
[Cu med, cong Ac cuf]
+5.3 +4.0 91 +2 +2 1007.1 993.1 0.7
04 14.09 ЮЗ 2
{6}
н/о н/о +5.3 +4.0 91 +3 +3 1007.2 993.2 0.9
05 14.09 Ю 3
{5}
н/о н/о +5.3 +3.8 90 +2 +2 1007.1 993.1
06 14.09 Ю 4
{7}
50 км в посл. час ливневой дождь 9/8 600 м
[Cu med, cong Ac cuf Ci fib]
+5.6 +3.6 87 +2 +2 1007.3 993.3 +5.0 +6.8 4
07 14.09 Ю 4 н/о н/о +6.3 +3.5 82 +3 +3 1007.2 993.3
08 14.09 Ю 4
{7}
н/о н/о +7.1 +3.9 80 +4 +4 1007.3 993.4
09 14.09 Ю 6
{10}
40 км осадки на расстоянии 9/8 600 м
[Cu med, cong Ac cuf Ci fib]
+6.8 +3.2 78 +2 +3 1007.5 993.6
10 14.09 Ю 4
{8}
н/о н/о +6.3 +3.6 83 +3 +3 1007.8 993.9 0.6
11 14.09 Ю 5
{7}
н/о н/о +6.8 +3.8 81 +3 +3 1007.7 993.8 0.3
12 14.09 Ю 4
{10}
50 км {ливн. осадки} 8/8 600 м
[Cu med, cong Ac cuf]
+8.0 +3.9 75 +5 +5 1007.7 993.8 1
13 14.09 Ю 5
{9}
н/о н/о +7.2 +3.5 77 +3 +3 1007.6 993.7
14 14.09 Ю 4
{8}
н/о н/о +7.6 +4.0 78 +4 +4 1007.7 993.8 0.6
15 14.09 Ю 5
{8}
50 км слаб. ливневой дождь 8/8 600 м
[Cu med, cong Ac cuf]
+7.2 +3.3 76 +3 +3 1007.4 993.5
16 14.09 Ю 4
{8}
н/о н/о +6.8 +2.5 74 +3 +3 1006.9 993.0
17 14.09 Ю 3
{8}
н/о н/о +6.1 +2.4 77 +3 +3 1006.3 992.4
18 14.09 Ю 4
{9}
70 км {ливн. осадки} 3/3 600 м
[Sc]
+5.8 +2.1 77 +2 +2 1005.7 991.8 +5.6 +8.5 2
19 14.09 Ю 4
{6}
н/о н/о +5.4 +3.3 86 +1 +1 1005.2 991.2
20 14.09 Ю 2
{5}
н/о н/о +4.9 +2.4 84 +2 +2 1004.6 990.6
21 14.09 СВ 2
{3}
>70 км 1/1 600 м
[Cu hum]
+3.5 +2.0 90 +1 +1 1003.4 989.4
22 14.09 С 2
{4}
н/о н/о +3.2 +2.3 94 0 0 1002.6 988.6
23 14.09 СВ 2
{3}
н/о н/о +2.5 +1.8 95 -1 -1 1001.8 987.7
00 15.09 СВ 1
{6}
>70 км 1/1 100 м
[St]
+1.9 +1.2 95 0 0 1000.7 986.6
01 15.09 штиль 0
{3}
н/о н/о +1.3 +0.7 96 0 0 999.4 985.3
02 15.09 СЗ 1
{2}
н/о н/о +1.7 +1.1 96 -0 -0 998.1 984.1
03 15.09 В 1
{3}
70 км 1/0 2000 м
[Ac trans Cs]
+2.0 +1.4 96 0 0 997.0 983.0

 

Местоположение метеостанции Тромсё (Норвегия): широта 69.65 долгота 18.94 высота над уровнем моря 100 м.

В архиве по умолчанию представлена погода в Тромсё за последнюю неделю. Архивные данные за месяц целиком и за предыдущие месяцы, начиная с января 2011 года, Вы можете получить, выбрав интересующий диапазон дат из раскрывающегося списка и нажав кнопку "Ввод!".


*Определитесь, кто Вы:
робот инопланетянин человек

Внимание! Время в таблицах - всемирное. Для получения местного времени необходимо прибавить поправку, которая равна 1 ч.

Смотрите также архив погоды в соседних городах и на ближайших метеорологических станциях:

Погода в Тромсё (Холт) (Норвегия) (1 км)
Погода в Тромсё аэропорту (Норвегия) (4 км)
Погода на Маяке Hekkingen (Норвегия) (43 км)
Погода в Люнгене (Норвегия) (46 км)
Погода в Норднесфьеллете (Норвегия) (58 км)
Погода в Шиботне (Норвегия) (60 км)
Погода в Бардуфоссе (Норвегия) (67 км)
Погода на Маяке Torsvag (Норвегия) (70 км)
Погода в Сёрхьюсен аэропорту (Норвегия) (79 км)
Погода в Килписйарви (Финляндия) (99 км)

Пояснения к столбцам:

Ветер - указаны скорость ветра в м/с - средняя за 10 мин, порывы в срок и между сроками (в фигурных скобках) и направление, откуда дует ветер: С - северный, СВ - северо-восточный, В - восточный, ЮВ - юго-восточный, Ю - южный, ЮЗ - юго-западный, З - западный, СЗ - северо-западный.
Видимость - горизонтальная дальность видимости в метрах или километрах. При видимости от 1 до 10 км при отсутствии осадков обычно наблюдается дымка, при ухудшении видимости до 1 км и менее - туман. В сухую погоду видимость может ухудшаться дымом, пылью или мглою.
Явления - указаны атмосферные явления, наблюдавшиеся в срок или в последний час перед сроком; фигурными скобками обозначены явления, наблюдавшиеся между сроками (за 1-3 часа до срока); квадратными скобками обозначены град или гололедные отложения с указанием их диаметра в мм.
Облачность - указаны через наклонную черту общая и нижняя облачность в баллах и высота нижней границы облаков в метрах; квадратными скобками обозначены формы облаков: Ci - перистые, Cs - перисто-слоистые, Cc - перисто-кучевые, Ac - высококучевые, As - высокослоистые, Sc - слоисто-кучевые, Ns - слоисто-дождевые, Cu - кучевые, Cb - кучево-дождевые. Подробнее классификацию облаков см. в Атласе облаков (PDF).
T - Температура воздуха - температура, измеренная на высоте 2 м над землей.
Td - Температура точки росы - температура, при понижении до которой содержащийся в воздухе водяной пар достигнет насыщения.
f - Относительная влажность воздуха - влажноcть воздуха, измеренная на высоте 2 м над землей.
Te - Эффективная температура - температура, которую ощущает одетый по сезону человек в тени. Характеристика душности погоды. При расчете учитывается влияние влажности воздуха и скорости ветра на теплоощущения человека.
Tes - Эффективная температура на солнце - температура, которую ощущает человек, с поправкой на солнечный нагрев. Характеристика знойности погоды. Зависит от высоты солнца над горизонтом, облачности и скорости ветра. Ночью, в пасмурную погоду, а также при ветре 12 м/с и более поправка равна нулю.
P - Атмосферное давление - приведенное к уровню моря атмосферное давление.
Po - Атмосферное давление - измеренное на уровне метеостанции атмосферное давление.
Tmin - Минимальная температура - минимум температуры воздуха на высоте 2 м над землей.
Tmax - Максимальная температура - максимум температуры воздуха на высоте 2 м над землей.
R - Количество осадков - Количество выпавших осадков за период времени, мм. При наведении курсора мыши на число - период времени, за который выпало указанное количество осадков.
R24 - Количество осадков - Количество выпавших осадков за 24 часа, мм.
S - Снежный покров - Высота снежного покрова, см. При наведении курсора мыши на число - состояние снежного покрова и степень покрытия местности в баллах.